QPF
0.02 0.02 0.03 0.03 0.03 0.03 0.03 0.02 0.02 0.02 0.02 0.02 0.01 0.02 0.02 0.03 0.02 0.02 0.02 0.03 0.03 0.04 0.04 0.05 0.05 0.08 0.12 0.14 0.12 0.08 0.07 0.08 0.07 0.05 0.04 0.04 0.05 0.06 0.07 0.07 0.07 0.05 0.04
0.02 0.02 0.01 0.01 0.02 0.02 0.03 0.03 0.03 0.04 0.04 0.03 0.02 0.02 0.02 0.02 0.02 0.02 0.02 0.03 0.03 0.03 0.04 0.05 0.04 0.06 0.08 0.09 0.09 0.07 0.06 0.07 0.08 0.05 0.05 0.06 0.07 0.06 0.06 0.06 0.06 0.05 0.04
0.01 0.01 0.01 0.02 0.02 0.02 0.02 0.02 0.02 0.02 0.02 0.02 0.02 0.02 0.02 0.02 0.02 0.01 0.01 0.01 0.01 0.02 0.03 0.04 0.04 0.04 0.06 0.07 0.06 0.06 0.06 0.05 0.08 0.07 0.05 0.06 0.06 0.05 0.06 0.05 0.05 0.05 0.03
0.01 0.01 0.01 0.01 0.01 0.02 0.02 0.01 0.01 0.01 0.01 0.01 0.01 0.01 0.01 0.01 0.01 0.01 0.00 0.00 0.01 0.01 0.02 0.02 0.03 0.03 0.05 0.06 0.06 0.07 0.07 0.07 0.07 0.07 0.05 0.06 0.05 0.06 0.06 0.06 0.06 0.04 0.03
0.02 0.01 0.01 0.01 0.01 0.02 0.03 0.02 0.01 0.01 0.01 0.01 0.01 0.01 0.01 0.01 0.01 0.01 0.01 0.00 0.01 0.01 0.02 0.03 0.03 0.03 0.04 0.04 0.03 0.05 0.06 0.08 0.08 0.07 0.06 0.05 0.04 0.04 0.04 0.04 0.03 0.02 0.02
0.01 0.01 0.01 0.01 0.02 0.02 0.02 0.02 0.01 0.01 0.02 0.02 0.02 0.02 0.02 0.01 0.01 0.02 0.02 0.01 0.01 0.02 0.03 0.03 0.02 0.03 0.04 0.04 0.03 0.03 0.03 0.05 0.07 0.07 0.05 0.05 0.06 0.05 0.05 0.04 0.03 0.02 0.03
0.01 0.01 0.01 0.02 0.02 0.02 0.02 0.02 0.02 0.02 0.03 0.02 0.02 0.03 0.03 0.03 0.03 0.03 0.03 0.01 0.02 0.03 0.04 0.05 0.03 0.03 0.04 0.05 0.06 0.03 0.03 0.03 0.04 0.05 0.05 0.04 0.05 0.06 0.05 0.03 0.02 0.03 0.04
0.01 0.01 0.01 0.01 0.01 0.01 0.01 0.01 0.01 0.02 0.02 0.02 0.03 0.04 0.04 0.03 0.03 0.03 0.03 0.03 0.03 0.03 0.04 0.05 0.06 0.06 0.06 0.06 0.06 0.05 0.05 0.04 0.04 0.03 0.03 0.03 0.03 0.05 0.05 0.04 0.05 0.05 0.04
0.01 0.01 0.02 0.01 0.01 0.01 0.01 0.01 0.02 0.02 0.02 0.02 0.02 0.03 0.03 0.03 0.02 0.02 0.02 0.02 0.02 0.04 0.05 0.05 0.04 0.03 0.04 0.03 0.05 0.06 0.05 0.06 0.04 0.02 0.02 0.01 0.01 0.02 0.04 0.05 0.05 0.05 0.04
0.01 0.01 0.02 0.02 0.02 0.01 0.02 0.02 0.02 0.02 0.02 0.02 0.02 0.02 0.02 0.02 0.03 0.03 0.02 0.02 0.02 0.02 0.02 0.02 0.01 0.02 0.03 0.04 0.05 0.05 0.07 0.08 0.06 0.05 0.03 0.02 0.01 0.01 0.03 0.05 0.05 0.04 0.05
0.02 0.02 0.02 0.02 0.02 0.02 0.02 0.03 0.02 0.02 0.02 0.02 0.02 0.02 0.02 0.02 0.03 0.03 0.03 0.03 0.02 0.02 0.03 0.03 0.02 0.03 0.03 0.05 0.05 0.06 0.06 0.05 0.04 0.03 0.03 0.03 0.03 0.03 0.04 0.04 0.05 0.05 0.06
0.04 0.03 0.03 0.03 0.02 0.02 0.02 0.02 0.02 0.02 0.02 0.02 0.02 0.02 0.02 0.03 0.03 0.03 0.04 0.03 0.04 0.03 0.03 0.04 0.03 0.04 0.05 0.05 0.05 0.04 0.03 0.03 0.03 0.03 0.03 0.03 0.03 0.03 0.04 0.05 0.05 0.05 0.06
0.03 0.03 0.03 0.03 0.02 0.01 0.02 0.02 0.02 0.02 0.02 0.02 0.02 0.02 0.02 0.03 0.03 0.03 0.04 0.03 0.04 0.04 0.03 0.03 0.03 0.03 0.04 0.05 0.05 0.05 0.04 0.03 0.03 0.03 0.02 0.02 0.02 0.03 0.03 0.03 0.04 0.05 0.06
0.02 0.02 0.02 0.03 0.03 0.03 0.03 0.03 0.02 0.02 0.02 0.02 0.02 0.02 0.02 0.03 0.03 0.04 0.04 0.04 0.04 0.04 0.03 0.02 0.02 0.02 0.02 0.03 0.05 0.04 0.04 0.03 0.03 0.03 0.02 0.02 0.02 0.03 0.03 0.03 0.04 0.05 0.04
0.01 0.02 0.02 0.03 0.04 0.04 0.03 0.03 0.03 0.02 0.04 0.04 0.03 0.02 0.03 0.03 0.05 0.06 0.05 0.05 0.04 0.05 0.04 0.04 0.03 0.03 0.03 0.03 0.04 0.03 0.03 0.03 0.02 0.02 0.02 0.02 0.02 0.02 0.03 0.03 0.04 0.05 0.04
0.02 0.02 0.02 0.02 0.02 0.02 0.02 0.02 0.04 0.04 0.04 0.05 0.05 0.04 0.04 0.04 0.05 0.05 0.05 0.06 0.06 0.06 0.05 0.05 0.04 0.04 0.04 0.04 0.05 0.05 0.04 0.03 0.02 0.02 0.02 0.03 0.03 0.03 0.03 0.03 0.03 0.03 0.03
0.02 0.03 0.02 0.02 0.02 0.03 0.03 0.03 0.03 0.03 0.03 0.04 0.04 0.04 0.04 0.04 0.03 0.04 0.06 0.08 0.09 0.09 0.07 0.06 0.07 0.08 0.08 0.07 0.06 0.05 0.04 0.04 0.04 0.03 0.03 0.02 0.03 0.03 0.04 0.03 0.03 0.03 0.03
0.02 0.02 0.02 0.02 0.03 0.03 0.03 0.04 0.04 0.04 0.03 0.03 0.03 0.03 0.03 0.03 0.04 0.05 0.07 0.08 0.09 0.09 0.08 0.08 0.09 0.09 0.09 0.08 0.07 0.06 0.05 0.05 0.05 0.04 0.04 0.04 0.04 0.04 0.04 0.04 0.04 0.03 0.04
0.01 0.01 0.01 0.01 0.03 0.04 0.04 0.04 0.04 0.04 0.04 0.04 0.04 0.04 0.04 0.04 0.04 0.05 0.05 0.05 0.06 0.08 0.07 0.06 0.07 0.07 0.06 0.05 0.04 0.04 0.05 0.06 0.06 0.05 0.05 0.05 0.06 0.07 0.07 0.08 0.08 0.07 0.07
0.02 0.01 0.02 0.03 0.04 0.03 0.03 0.04 0.04 0.04 0.04 0.05 0.06 0.06 0.06 0.07 0.07 0.06 0.05 0.05 0.06 0.06 0.05 0.05 0.05 0.05 0.04 0.04 0.04 0.04 0.04 0.05 0.05 0.06 0.06 0.06 0.06 0.07 0.07 0.08 0.08 0.08 0.08
0.01 0.02 0.03 0.04 0.04 0.04 0.04 0.04 0.04 0.05 0.05 0.06 0.06 0.08 0.08 0.07 0.07 0.06 0.06 0.05 0.04 0.04 0.04 0.04 0.04 0.04 0.04 0.04 0.03 0.04 0.04 0.05 0.05 0.06 0.05 0.05 0.05 0.06 0.06 0.07 0.08 0.08 0.08
0.03 0.04 0.04 0.04 0.05 0.06 0.06 0.06 0.05 0.06 0.07 0.08 0.08 0.09 0.09 0.08 0.08 0.07 0.06 0.06 0.06 0.06 0.06 0.07 0.06 0.04 0.04 0.04 0.04 0.04 0.05 0.06 0.05 0.06 0.06 0.06 0.06 0.06 0.07 0.08 0.08 0.09 0.10
0.04 0.05 0.04 0.05 0.07 0.08 0.09 0.09 0.09 0.09 0.09 0.08 0.07 0.06 0.06 0.06 0.07 0.08 0.07 0.07 0.09 0.09 0.09 0.07 0.05 0.04 0.04 0.04 0.04 0.05 0.04 0.04 0.05 0.04 0.05 0.05 0.05 0.05 0.05 0.06 0.07 0.08 0.08
0.03 0.03 0.03 0.03 0.04 0.04 0.05 0.07 0.07 0.06 0.06 0.06 0.05 0.05 0.04 0.05 0.06 0.07 0.06 0.06 0.06 0.07 0.05 0.04 0.04 0.04 0.04 0.04 0.04 0.04 0.03 0.04 0.05 0.05 0.05 0.06 0.06 0.05 0.05 0.06 0.06 0.06 0.06
0.02 0.02 0.02 0.03 0.05 0.05 0.04 0.05 0.05 0.05 0.05 0.04 0.04 0.04 0.05 0.05 0.06 0.07 0.07 0.07 0.06 0.05 0.04 0.04 0.04 0.04 0.04 0.04 0.04 0.04 0.05 0.06 0.05 0.05 0.04 0.05 0.06 0.06 0.05 0.05 0.05 0.05 0.05
0.03 0.03 0.03 0.04 0.05 0.07 0.06 0.05 0.05 0.05 0.04 0.04 0.05 0.06 0.07 0.07 0.07 0.07 0.08 0.09 0.08 0.07 0.06 0.05 0.05 0.05 0.05 0.05 0.05 0.06 0.06 0.05 0.04 0.04 0.04 0.04 0.04 0.05 0.05 0.05 0.05 0.05 0.06
MSLP
1015.51 1015.77 1016.03 1016.27 1016.45 1016.56 1016.59 1016.58 1016.54 1016.49 1016.47 1016.48 1016.52 1016.59 1016.65 1016.70 1016.72 1016.70 1016.64 1016.56 1016.48 1016.43 1016.42 1016.48 1016.60 1016.81 1017.08 1017.42 1017.82 1018.27 1018.75 1019.27 1019.80 1020.34 1020.87 1021.37 1021.82 1022.21 1022.54 1022.79 1022.97 1023.09 1023.17
1014.99 1015.23 1015.48 1015.71 1015.90 1016.03 1016.10 1016.13 1016.12 1016.11 1016.11 1016.12 1016.17 1016.23 1016.29 1016.35 1016.39 1016.40 1016.39 1016.36 1016.33 1016.31 1016.33 1016.39 1016.50 1016.68 1016.91 1017.21 1017.58 1018.00 1018.47 1018.98 1019.53 1020.08 1020.63 1021.16 1021.64 1022.06 1022.42 1022.71 1022.93 1023.10 1023.23
1014.38 1014.61 1014.85 1015.07 1015.27 1015.42 1015.53 1015.59 1015.63 1015.66 1015.68 1015.72 1015.78 1015.84 1015.92 1016.00 1016.07 1016.12 1016.16 1016.18 1016.20 1016.22 1016.26 1016.33 1016.43 1016.57 1016.77 1017.03 1017.36 1017.75 1018.20 1018.70 1019.24 1019.80 1020.37 1020.91 1021.40 1021.85 1022.23 1022.54 1022.80 1023.01 1023.18
1013.63 1013.87 1014.12 1014.36 1014.58 1014.77 1014.91 1015.02 1015.11 1015.18 1015.24 1015.31 1015.39 1015.47 1015.57 1015.67 1015.76 1015.85 1015.94 1016.01 1016.07 1016.13 1016.19 1016.26 1016.35 1016.47 1016.63 1016.85 1017.14 1017.49 1017.92 1018.40 1018.93 1019.49 1020.05 1020.60 1021.10 1021.54 1021.93 1022.26 1022.54 1022.78 1022.99
1012.77 1013.05 1013.33 1013.61 1013.87 1014.10 1014.30 1014.47 1014.60 1014.72 1014.83 1014.92 1015.02 1015.12 1015.23 1015.34 1015.46 1015.58 1015.69 1015.80 1015.89 1015.98 1016.06 1016.13 1016.21 1016.31 1016.45 1016.64 1016.89 1017.21 1017.61 1018.07 1018.58 1019.13 1019.67 1020.20 1020.69 1021.13 1021.51 1021.84 1022.12 1022.38 1022.63
1011.87 1012.21 1012.55 1012.88 1013.19 1013.48 1013.74 1013.96 1014.15 1014.31 1014.45 1014.56 1014.67 1014.77 1014.87 1014.98 1015.10 1015.22 1015.35 1015.48 1015.60 1015.70 1015.79 1015.88 1015.96 1016.06 1016.18 1016.35 1016.58 1016.88 1017.25 1017.68 1018.17 1018.68 1019.20 1019.70 1020.16 1020.58 1020.94 1021.25 1021.54 1021.80 1022.06
1011.04 1011.44 1011.84 1012.24 1012.61 1012.96 1013.27 1013.54 1013.76 1013.95 1014.09 1014.21 1014.30 1014.38 1014.45 1014.53 1014.63 1014.74 1014.86 1014.99 1015.12 1015.24 1015.35 1015.45 1015.55 1015.66 1015.78 1015.95 1016.18 1016.46 1016.81 1017.22 1017.68 1018.16 1018.64 1019.09 1019.51 1019.89 1020.22 1020.51 1020.78 1021.05 1021.32
1010.42 1010.87 1011.33 1011.78 1012.20 1012.58 1012.92 1013.21 1013.44 1013.62 1013.75 1013.82 1013.87 1013.89 1013.91 1013.94 1013.99 1014.07 1014.17 1014.29 1014.43 1014.57 1014.71 1014.84 1014.97 1015.10 1015.26 1015.44 1015.68 1015.96 1016.30 1016.69 1017.12 1017.56 1017.99 1018.40 1018.78 1019.11 1019.40 1019.66 1019.91 1020.17 1020.44
1010.10 1010.59 1011.07 1011.54 1011.97 1012.36 1012.69 1012.96 1013.16 1013.29 1013.36 1013.37 1013.34 1013.29 1013.24 1013.20 1013.19 1013.23 1013.30 1013.42 1013.56 1013.73 1013.90 1014.08 1014.25 1014.43 1014.63 1014.85 1015.11 1015.40 1015.74 1016.12 1016.52 1016.92 1017.31 1017.67 1018.00 1018.29 1018.54 1018.77 1019.00 1019.25 1019.52
1010.12 1010.59 1011.06 1011.50 1011.90 1012.25 1012.53 1012.73 1012.86 1012.91 1012.89 1012.81 1012.69 1012.55 1012.42 1012.32 1012.26 1012.26 1012.32 1012.44 1012.60 1012.80 1013.02 1013.24 1013.47 1013.71 1013.95 1014.22 1014.50 1014.82 1015.16 1015.53 1015.90 1016.28 1016.63 1016.95 1017.24 1017.49 1017.72 1017.93 1018.14 1018.38 1018.65
1010.42 1010.84 1011.24 1011.60 1011.92 1012.17 1012.35 1012.45 1012.48 1012.42 1012.30 1012.13 1011.92 1011.71 1011.52 1011.37 1011.28 1011.27 1011.33 1011.46 1011.65 1011.89 1012.15 1012.43 1012.71 1013.00 1013.29 1013.59 1013.90 1014.23 1014.58 1014.94 1015.30 1015.65 1015.98 1016.28 1016.54 1016.77 1016.98 1017.18 1017.40 1017.63 1017.91
1010.87 1011.19 1011.47 1011.72 1011.90 1012.02 1012.07 1012.05 1011.95 1011.79 1011.57 1011.31 1011.04 1010.78 1010.56 1010.40 1010.32 1010.32 1010.41 1010.58 1010.81 1011.09 1011.39 1011.71 1012.03 1012.35 1012.67 1012.99 1013.32 1013.66 1014.00 1014.36 1014.71 1015.05 1015.37 1015.66 1015.91 1016.15 1016.36 1016.57 1016.79 1017.04 1017.33
1011.30 1011.47 1011.61 1011.70 1011.73 1011.70 1011.60 1011.45 1011.23 1010.97 1010.68 1010.37 1010.08 1009.82 1009.61 1009.49 1009.45 1009.50 1009.64 1009.85 1010.13 1010.44 1010.78 1011.12 1011.45 1011.77 1012.09 1012.41 1012.73 1013.06 1013.40 1013.75 1014.10 1014.44 1014.76 1015.06 1015.34 1015.59 1015.83 1016.07 1016.31 1016.59 1016.89
1011.53 1011.55 1011.52 1011.44 1011.31 1011.12 1010.88 1010.61 1010.30 1009.97 1009.64 1009.33 1009.06 1008.84 1008.70 1008.65 1008.68 1008.81 1009.02 1009.29 1009.60 1009.93 1010.27 1010.60 1010.92 1011.22 1011.51 1011.79 1012.09 1012.39 1012.72 1013.06 1013.42 1013.77 1014.12 1014.45 1014.77 1015.06 1015.34 1015.62 1015.91 1016.21 1016.54
1011.45 1011.31 1011.12 1010.88 1010.59 1010.26 1009.91 1009.54 1009.17 1008.82 1008.50 1008.22 1008.01 1007.88 1007.84 1007.88 1008.01 1008.23 1008.50 1008.82 1009.15 1009.48 1009.80 1010.09 1010.35 1010.59 1010.82 1011.06 1011.31 1011.59 1011.90 1012.24 1012.61 1012.99 1013.38 1013.77 1014.14 1014.50 1014.84 1015.17 1015.50 1015.84 1016.19
1011.03 1010.74 1010.41 1010.02 1009.61 1009.18 1008.74 1008.32 1007.93 1007.58 1007.30 1007.09 1006.97 1006.94 1007.00 1007.15 1007.38 1007.67 1008.00 1008.33 1008.67 1008.97 1009.24 1009.46 1009.64 1009.81 1009.96 1010.13 1010.33 1010.57 1010.87 1011.22 1011.62 1012.06 1012.51 1012.96 1013.41 1013.84 1014.25 1014.65 1015.03 1015.40 1015.77
1010.34 1009.93 1009.47 1008.99 1008.48 1007.98 1007.50 1007.06 1006.67 1006.35 1006.12 1005.99 1005.95 1006.02 1006.18 1006.42 1006.72 1007.05 1007.40 1007.74 1008.04 1008.29 1008.48 1008.62 1008.71 1008.79 1008.86 1008.96 1009.12 1009.34 1009.64 1010.02 1010.46 1010.95 1011.48 1012.02 1012.55 1013.06 1013.55 1014.01 1014.44 1014.85 1015.24
1009.49 1009.00 1008.46 1007.91 1007.35 1006.82 1006.32 1005.87 1005.50 1005.22 1005.04 1004.97 1005.00 1005.14 1005.35 1005.64 1005.97 1006.32 1006.65 1006.95 1007.19 1007.37 1007.48 1007.52 1007.53 1007.52 1007.53 1007.58 1007.71 1007.92 1008.24 1008.65 1009.15 1009.71 1010.32 1010.95 1011.57 1012.16 1012.73 1013.25 1013.73 1014.17 1014.58
1008.64 1008.09 1007.52 1006.93 1006.36 1005.81 1005.31 1004.88 1004.53 1004.28 1004.13 1004.09 1004.15 1004.30 1004.53 1004.81 1005.12 1005.43 1005.72 1005.95 1006.12 1006.22 1006.24 1006.21 1006.14 1006.08 1006.04 1006.06 1006.18 1006.40 1006.75 1007.20 1007.76 1008.39 1009.08 1009.79 1010.49 1011.17 1011.80 1012.38 1012.90 1013.38 1013.81
1007.91 1007.34 1006.75 1006.16 1005.59 1005.05 1004.57 1004.15 1003.81 1003.56 1003.41 1003.36 1003.40 1003.52 1003.71 1003.94 1004.19 1004.43 1004.63 1004.79 1004.88 1004.90 1004.85 1004.76 1004.65 1004.55 1004.50 1004.52 1004.64 1004.89 1005.27 1005.77 1006.38 1007.07 1007.82 1008.60 1009.37 1010.11 1010.80 1011.43 1011.99 1012.50 1012.96
1007.36 1006.79 1006.22 1005.64 1005.09 1004.57 1004.09 1003.68 1003.33 1003.06 1002.88 1002.78 1002.76 1002.81 1002.91 1003.05 1003.20 1003.34 1003.46 1003.53 1003.54 1003.50 1003.42 1003.30 1003.17 1003.07 1003.03 1003.07 1003.22 1003.50 1003.91 1004.44 1005.09 1005.82 1006.61 1007.43 1008.24 1009.02 1009.75 1010.43 1011.03 1011.57 1012.05
1007.01 1006.46 1005.90 1005.35 1004.81 1004.31 1003.84 1003.41 1003.05 1002.74 1002.49 1002.32 1002.20 1002.14 1002.13 1002.15 1002.19 1002.23 1002.25 1002.25 1002.21 1002.14 1002.04 1001.92 1001.82 1001.75 1001.74 1001.81 1002.00 1002.30 1002.74 1003.29 1003.94 1004.69 1005.49 1006.31 1007.14 1007.94 1008.70 1009.40 1010.03 1010.61 1011.12
1006.83 1006.29 1005.74 1005.21 1004.69 1004.19 1003.71 1003.27 1002.86 1002.50 1002.18 1001.90 1001.68 1001.50 1001.36 1001.26 1001.18 1001.12 1001.06 1001.01 1000.94 1000.86 1000.78 1000.70 1000.65 1000.63 1000.68 1000.80 1001.02 1001.35 1001.79 1002.33 1002.97 1003.69 1004.47 1005.27 1006.08 1006.88 1007.64 1008.36 1009.02 1009.62 1010.17
1006.73 1006.19 1005.66 1005.13 1004.61 1004.10 1003.61 1003.14 1002.68 1002.25 1001.85 1001.47 1001.13 1000.83 1000.57 1000.35 1000.17 1000.02 999.90 999.81 999.74 999.68 999.64 999.63 999.65 999.71 999.82 1000.00 1000.26 1000.60 1001.04 1001.56 1002.16 1002.83 1003.56 1004.32 1005.09 1005.86 1006.60 1007.32 1007.99 1008.62 1009.20
1006.66 1006.11 1005.57 1005.03 1004.50 1003.98 1003.46 1002.95 1002.44 1001.94 1001.45 1000.97 1000.52 1000.11 999.73 999.41 999.13 998.91 998.75 998.64 998.58 998.56 998.59 998.65 998.75 998.90 999.09 999.34 999.64 1000.00 1000.43 1000.92 1001.48 1002.09 1002.75 1003.44 1004.16 1004.88 1005.60 1006.30 1006.97 1007.61 1008.22
1006.57 1006.00 1005.44 1004.88 1004.32 1003.78 1003.22 1002.67 1002.11 1001.54 1000.97 1000.40 999.85 999.33 998.85 998.43 998.07 997.79 997.58 997.46 997.42 997.45 997.54 997.69 997.89 998.13 998.41 998.73 999.08 999.47 999.90 1000.37 1000.89 1001.44 1002.03 1002.65 1003.30 1003.97 1004.64 1005.31 1005.97 1006.61 1007.22
Thickness
5812 5807 5804 5800 5796 5792 5788 5786 5784 5781 5779 5776 5774 5771 5768 5765 5763 5760 5757 5756 5753 5751 5749 5747 5744 5742 5740 5738 5736 5732 5728 5723 5714 5711 5710 5708 5704 5701 5697 5693 5689 5685 5682
5814 5809 5805 5801 5797 5793 5789 5787 5784 5781 5779 5776 5774 5770 5767 5765 5762 5759 5756 5755 5752 5749 5747 5745 5742 5741 5738 5736 5732 5729 5725 5722 5715 5708 5706 5704 5701 5698 5694 5690 5686 5683 5679
5816 5810 5805 5801 5797 5794 5791 5788 5785 5781 5778 5776 5773 5769 5766 5764 5761 5758 5756 5753 5751 5748 5746 5743 5740 5738 5734 5732 5729 5725 5722 5720 5714 5708 5704 5702 5699 5696 5691 5687 5685 5681 5678
5817 5811 5806 5802 5799 5795 5792 5788 5785 5781 5777 5774 5772 5769 5766 5763 5760 5757 5754 5751 5749 5747 5745 5742 5739 5736 5732 5729 5726 5722 5719 5715 5711 5706 5702 5699 5696 5693 5688 5684 5680 5677 5675
5816 5810 5806 5804 5800 5796 5792 5788 5785 5781 5778 5774 5771 5767 5765 5761 5758 5755 5752 5750 5746 5744 5742 5740 5737 5734 5730 5727 5723 5719 5716 5711 5707 5703 5699 5696 5692 5687 5684 5682 5677 5674 5671
5813 5809 5806 5802 5798 5794 5790 5787 5783 5779 5776 5773 5769 5765 5762 5760 5757 5753 5750 5747 5745 5741 5739 5737 5735 5731 5727 5723 5720 5717 5713 5709 5704 5700 5697 5693 5690 5688 5684 5680 5675 5670 5665
5812 5808 5804 5800 5795 5792 5789 5784 5780 5777 5773 5769 5767 5763 5759 5756 5753 5750 5747 5744 5741 5739 5736 5733 5732 5731 5726 5721 5717 5713 5710 5707 5703 5699 5695 5692 5689 5687 5682 5677 5673 5668 5665
5809 5805 5802 5798 5794 5790 5786 5781 5778 5774 5770 5766 5763 5760 5757 5753 5750 5746 5742 5740 5737 5736 5734 5730 5727 5725 5722 5718 5714 5710 5707 5704 5701 5697 5694 5691 5689 5685 5680 5676 5672 5667 5664
5805 5801 5799 5795 5790 5786 5781 5777 5774 5769 5766 5763 5761 5757 5754 5750 5746 5742 5738 5736 5733 5731 5730 5727 5724 5721 5717 5713 5709 5704 5701 5698 5696 5694 5691 5688 5684 5681 5677 5672 5667 5662 5657
5800 5797 5795 5792 5786 5782 5777 5774 5771 5766 5762 5760 5757 5754 5751 5747 5743 5739 5734 5732 5729 5727 5725 5723 5719 5716 5712 5708 5703 5699 5694 5692 5691 5687 5683 5681 5678 5675 5672 5668 5664 5659 5655
5796 5793 5790 5787 5782 5779 5775 5771 5767 5762 5758 5755 5752 5750 5748 5745 5740 5735 5730 5727 5725 5722 5720 5718 5715 5710 5706 5702 5698 5694 5691 5688 5685 5681 5678 5676 5673 5670 5667 5664 5661 5657 5653
5790 5786 5783 5780 5778 5775 5769 5765 5761 5757 5752 5749 5746 5743 5742 5740 5736 5730 5725 5721 5718 5715 5714 5713 5710 5704 5700 5696 5692 5689 5686 5682 5679 5676 5673 5670 5668 5665 5664 5661 5658 5655 5653
5783 5779 5776 5774 5771 5769 5764 5758 5754 5751 5747 5744 5741 5737 5736 5735 5731 5725 5720 5715 5712 5709 5708 5705 5701 5696 5692 5689 5686 5683 5679 5676 5673 5670 5668 5667 5665 5663 5660 5657 5655 5651 5648
5776 5772 5769 5766 5764 5761 5757 5753 5748 5744 5741 5738 5735 5733 5730 5727 5723 5718 5713 5707 5703 5699 5697 5695 5692 5689 5685 5682 5679 5677 5674 5672 5669 5667 5665 5664 5661 5658 5654 5651 5647 5644 5640
5768 5765 5762 5759 5756 5752 5749 5745 5742 5739 5737 5732 5730 5727 5722 5718 5714 5710 5706 5702 5699 5695 5690 5686 5684 5682 5679 5677 5675 5673 5671 5668 5664 5662 5660 5657 5654 5651 5648 5645 5641 5637 5633
5759 5757 5755 5752 5749 5746 5741 5737 5734 5731 5729 5726 5723 5719 5716 5711 5706 5702 5698 5693 5690 5686 5682 5679 5677 5674 5672 5670 5668 5666 5664 5661 5660 5657 5654 5651 5648 5645 5642 5639 5635 5631 5627
5753 5751 5748 5746 5742 5738 5735 5730 5726 5722 5719 5716 5713 5710 5706 5701 5697 5693 5688 5684 5680 5676 5674 5672 5670 5667 5665 5663 5662 5661 5659 5657 5654 5652 5649 5646 5643 5640 5636 5633 5629 5625 5622
5747 5744 5741 5738 5736 5733 5730 5726 5722 5717 5712 5708 5704 5700 5696 5693 5689 5684 5679 5674 5671 5668 5667 5665 5663 5661 5659 5658 5656 5655 5654 5652 5648 5645 5642 5640 5637 5634 5631 5627 5624 5620 5617
5739 5736 5733 5731 5729 5726 5724 5720 5717 5712 5707 5702 5698 5693 5688 5683 5678 5674 5670 5669 5667 5665 5662 5660 5657 5656 5654 5652 5651 5649 5647 5644 5641 5638 5636 5633 5631 5628 5625 5622 5619 5615 5611
5731 5728 5725 5722 5720 5718 5716 5713 5709 5704 5699 5695 5690 5685 5680 5675 5672 5668 5664 5663 5661 5659 5657 5654 5652 5649 5647 5646 5644 5642 5641 5638 5635 5633 5631 5628 5625 5622 5618 5615 5612 5609 5606
5723 5721 5717 5715 5712 5710 5707 5704 5700 5695 5691 5687 5683 5679 5673 5670 5667 5665 5661 5658 5655 5653 5651 5649 5646 5644 5641 5639 5637 5635 5633 5630 5628 5625 5623 5620 5617 5614 5611 5608 5604 5602 5599
5715 5713 5710 5707 5705 5702 5699 5696 5692 5687 5683 5679 5675 5672 5666 5664 5662 5660 5657 5654 5651 5648 5645 5642 5639 5637 5634 5631 5629 5626 5623 5620 5618 5616 5613 5611 5608 5606 5603 5600 5597 5594 5591
5707 5705 5702 5699 5696 5692 5690 5688 5684 5680 5676 5672 5668 5664 5659 5656 5654 5651 5650 5647 5644 5642 5638 5635 5632 5629 5626 5623 5620 5617 5613 5610 5608 5606 5603 5602 5599 5597 5595 5591 5587 5584 5581
5699 5697 5694 5691 5688 5685 5682 5679 5676 5672 5668 5664 5660 5656 5652 5649 5646 5642 5639 5637 5635 5633 5630 5627 5624 5620 5616 5613 5610 5607 5604 5601 5598 5596 5594 5591 5589 5588 5585 5582 5579 5576 5573
5692 5689 5686 5682 5679 5677 5674 5670 5666 5662 5659 5655 5651 5648 5644 5641 5637 5635 5632 5629 5626 5624 5621 5618 5614 5611 5607 5604 5600 5596 5593 5590 5588 5586 5584 5582 5580 5578 5575 5573 5571 5568 5566
5682 5680 5677 5674 5671 5667 5664 5660 5656 5653 5649 5645 5642 5637 5634 5631 5628 5626 5622 5619 5616 5613 5610 5607 5603 5599 5596 5593 5589 5585 5582 5579 5577 5575 5573 5572 5571 5568 5565 5563 5561 5558 5556